When you browse on this site, cookies collect data to enhance your experience and personalize the content and advertising you see.
Visit our Privacy Policy to learn more. By continuing to use the site, you agree to this use of cookies and data.
EN

Hourly Weather Kamarhati

Today, 6 August, Thursday

Time Temperature Precipitation Wind Pressure Humidity
00:00 +30°C° 0 mm 4 mps 747 mmHg 88%
01:00 +29°C° 0.9 mm 4 mps 747 mmHg 88%
02:00 +29°C° 0.9 mm 4 mps 747 mmHg 88%
03:00 +29°C° 0.9 mm 3 mps 748 mmHg 88%
04:00 +29°C° 0.4 mm 3 mps 748 mmHg 88%
05:00 +29°C° 0.4 mm 3 mps 748 mmHg 88%
06:00 +29°C° 0 mm 3 mps 748 mmHg 90%
07:00 +30°C° 0.4 mm 4 mps 749 mmHg 85%
08:00 +32°C° 0.4 mm 4 mps 749 mmHg 80%
09:00 +33°C° 0.4 mm 5 mps 750 mmHg 75%
10:00 +33°C° 0.5 mm 5 mps 750 mmHg 76%
11:00 +33°C° 0.5 mm 5 mps 750 mmHg 78%
12:00 +32°C° 0.5 mm 5 mps 750 mmHg 80%
13:00 +32°C° 0.4 mm 5 mps 749 mmHg 82%
14:00 +30°C° 0.4 mm 4 mps 749 mmHg 85%
15:00 +29°C° 0.4 mm 4 mps 749 mmHg 87%
16:00 +30°C° 0 mm 4 mps 748 mmHg 86%
17:00 +30°C° 0 mm 4 mps 748 mmHg 84%
18:00 +32°C° 0 mm 4 mps 748 mmHg 83%
19:00 +32°C° 0 mm 4 mps 749 mmHg 84%
20:00 +30°C° 0 mm 4 mps 750 mmHg 85%
21:00 +30°C° 0 mm 3 mps 750 mmHg 87%
22:00 +30°C° 0.1 mm 3 mps 750 mmHg 86%
23:00 +30°C° 0.1 mm 4 mps 750 mmHg 86%

Tomorrow, 7 August, Friday

Time Temperature Precipitation Wind Pressure Humidity
00:00 +30°C° 0.1 mm 4 mps 750 mmHg 86%
01:00 +30°C° 0.1 mm 4 mps 750 mmHg 86%
02:00 +30°C° 0.1 mm 3 mps 750 mmHg 87%
03:00 +30°C° 0.1 mm 3 mps 750 mmHg 87%
04:00 +30°C° 0.2 mm 3 mps 750 mmHg 87%
05:00 +30°C° 0.2 mm 3 mps 750 mmHg 88%
06:00 +30°C° 0.2 mm 3 mps 749 mmHg 88%
07:00 +30°C° 0.2 mm 3 mps 750 mmHg 86%
08:00 +32°C° 0.2 mm 4 mps 750 mmHg 84%
09:00 +32°C° 0.2 mm 4 mps 751 mmHg 81%
10:00 +33°C° 0.2 mm 5 mps 751 mmHg 77%
11:00 +34°C° 0.2 mm 5 mps 751 mmHg 72%
12:00 +35°C° 0.2 mm 5 mps 750 mmHg 68%
13:00 +35°C° 0 mm 5 mps 750 mmHg 67%
14:00 +35°C° 0 mm 6 mps 749 mmHg 67%
15:00 +35°C° 0 mm 6 mps 748 mmHg 66%
16:00 +35°C° 0 mm 5 mps 748 mmHg 68%
17:00 +34°C° 0 mm 5 mps 748 mmHg 71%
18:00 +33°C° 0 mm 5 mps 748 mmHg 73%
19:00 +33°C° 0 mm 4 mps 749 mmHg 76%
20:00 +32°C° 0 mm 4 mps 749 mmHg 80%
21:00 +32°C° 0 mm 4 mps 750 mmHg 83%
22:00 +30°C° 0 mm 3 mps 750 mmHg 85%
23:00 +30°C° 0 mm 3 mps 750 mmHg 86%

Day after tomorrow, 8 August, Saturday

Time Temperature Precipitation Wind Pressure Humidity
00:00 +30°C° 0 mm 3 mps 750 mmHg 87%
01:00 +30°C° 0.2 mm 3 mps 749 mmHg 87%
02:00 +30°C° 0.2 mm 2 mps 749 mmHg 87%
03:00 +30°C° 0.2 mm 2 mps 749 mmHg 87%
04:00 +30°C° 0.1 mm 2 mps 749 mmHg 87%
05:00 +30°C° 0.1 mm 2 mps 748 mmHg 86%
06:00 +29°C° 0.1 mm 2 mps 748 mmHg 86%
07:00 +31°C° 0 mm 2 mps 748 mmHg 80%
08:00 +32°C° 0 mm 2 mps 749 mmHg 73%
09:00 +34°C° 0 mm 2 mps 749 mmHg 67%
10:00 +35°C° 0.3 mm 2 mps 749 mmHg 63%
11:00 +36°C° 0.3 mm 2 mps 748 mmHg 60%
12:00 +37°C° 0.3 mm 3 mps 748 mmHg 56%
13:00 +37°C° 0.2 mm 3 mps 748 mmHg 56%
14:00 +37°C° 0.2 mm 3 mps 747 mmHg 56%
15:00 +38°C° 0.2 mm 4 mps 746 mmHg 56%
16:00 +37°C° 0.8 mm 4 mps 746 mmHg 61%
17:00 +36°C° 0.8 mm 4 mps 746 mmHg 65%
18:00 +35°C° 0.8 mm 4 mps 746 mmHg 70%
19:00 +34°C° 0.2 mm 4 mps 747 mmHg 73%
20:00 +33°C° 0.2 mm 4 mps 747 mmHg 76%
21:00 +32°C° 0.2 mm 4 mps 748 mmHg 79%
22:00 +32°C° 0 mm 4 mps 748 mmHg 80%
23:00 +31°C° 0 mm 3 mps 748 mmHg 81%

9 August, Sunday

Time Temperature Precipitation Wind Pressure Humidity
00:00 +31°C° 0 mm 3 mps 748 mmHg 82%
01:00 +30°C° 0 mm 3 mps 748 mmHg 83%
02:00 +30°C° 0 mm 3 mps 748 mmHg 84%
03:00 +30°C° 0 mm 3 mps 747 mmHg 85%
04:00 +30°C° 0 mm 3 mps 747 mmHg 86%
05:00 +30°C° 0 mm 3 mps 747 mmHg 87%
06:00 +30°C° 0 mm 2 mps 748 mmHg 88%
07:00 +31°C° 0 mm 3 mps 748 mmHg 81%
08:00 +33°C° 0 mm 3 mps 748 mmHg 75%
09:00 +34°C° 0 mm 4 mps 749 mmHg 68%
10:00 +35°C° 0 mm 4 mps 748 mmHg 64%
11:00 +36°C° 0 mm 4 mps 748 mmHg 59%
12:00 +37°C° 0 mm 4 mps 748 mmHg 55%
13:00 +38°C° 0.2 mm 4 mps 747 mmHg 55%
14:00 +39°C° 0.2 mm 5 mps 747 mmHg 56%
15:00 +39°C° 0.2 mm 5 mps 746 mmHg 56%
16:00 +37°C° 0.2 mm 5 mps 746 mmHg 60%
17:00 +36°C° 0.2 mm 5 mps 746 mmHg 64%
18:00 +35°C° 0.2 mm 5 mps 746 mmHg 68%
19:00 +34°C° 0 mm 4 mps 747 mmHg 71%
20:00 +33°C° 0 mm 4 mps 748 mmHg 74%
21:00 +32°C° 0 mm 4 mps 748 mmHg 78%
22:00 +32°C° 0 mm 4 mps 748 mmHg 79%
23:00 +31°C° 0 mm 3 mps 748 mmHg 81%

10 August, Monday

Time Temperature Precipitation Wind Pressure Humidity
00:00 +30°C° 0 mm 3 mps 748 mmHg 83%
01:00 +30°C° 0 mm 3 mps 748 mmHg 84%
02:00 +30°C° 0 mm 2 mps 748 mmHg 85%
03:00 +30°C° 0 mm 2 mps 748 mmHg 86%
04:00 +30°C° 0 mm 2 mps 748 mmHg 86%
05:00 +30°C° 0 mm 2 mps 748 mmHg 86%
06:00 +30°C° 0 mm 2 mps 748 mmHg 86%
07:00 +31°C° 0.1 mm 2 mps 749 mmHg 80%
08:00 +32°C° 0.1 mm 2 mps 749 mmHg 74%
09:00 +34°C° 0.1 mm 3 mps 749 mmHg 68%
10:00 +35°C° 0.2 mm 3 mps 749 mmHg 64%
11:00 +36°C° 0.2 mm 3 mps 749 mmHg 61%
12:00 +37°C° 0.2 mm 3 mps 748 mmHg 57%
13:00 +37°C° 0.1 mm 3 mps 748 mmHg 56%
14:00 +37°C° 0.1 mm 3 mps 747 mmHg 56%
15:00 +37°C° 0.1 mm 3 mps 746 mmHg 55%
16:00 +37°C° 0.1 mm 3 mps 746 mmHg 59%
17:00 +36°C° 0.1 mm 3 mps 746 mmHg 62%
18:00 +35°C° 0.1 mm 3 mps 746 mmHg 66%
19:00 +34°C° 0 mm 3 mps 747 mmHg 69%
20:00 +34°C° 0 mm 4 mps 747 mmHg 72%
21:00 +33°C° 0 mm 4 mps 748 mmHg 76%
22:00 +31°C° 0 mm 3 mps 748 mmHg 78%
23:00 +31°C° 0 mm 3 mps 748 mmHg 80%

11 August, Tuesday

Time Temperature Precipitation Wind Pressure Humidity
00:00 +31°C° 0 mm 2 mps 748 mmHg 82%
01:00 +31°C° 0 mm 2 mps 748 mmHg 83%
02:00 +30°C° 0 mm 1 mps 747 mmHg 84%
03:00 +30°C° 0 mm 1 mps 747 mmHg 85%
04:00 +30°C° 0 mm 1 mps 747 mmHg 86%
05:00 +30°C° 0 mm 1 mps 747 mmHg 86%
06:00 +28°C° 0 mm 0 mps 747 mmHg 86%
07:00 +31°C° 0 mm 1 mps 747 mmHg 80%
08:00 +32°C° 0 mm 1 mps 748 mmHg 75%
09:00 +33°C° 0 mm 1 mps 748 mmHg 69%
10:00 +34°C° 0 mm 1 mps 748 mmHg 64%
11:00 +36°C° 0 mm 2 mps 748 mmHg 59%
12:00 +37°C° 0 mm 2 mps 748 mmHg 54%
13:00 +37°C° 0.4 mm 2 mps 747 mmHg 55%
14:00 +37°C° 0.4 mm 3 mps 747 mmHg 55%
15:00 +37°C° 0.4 mm 3 mps 746 mmHg 56%
16:00 +36°C° 0.4 mm 4 mps 746 mmHg 61%
17:00 +35°C° 0.4 mm 5 mps 746 mmHg 66%
18:00 +34°C° 0.4 mm 5 mps 746 mmHg 71%
19:00 +33°C° 0 mm 5 mps 747 mmHg 74%
20:00 +33°C° 0 mm 4 mps 747 mmHg 77%
21:00 +32°C° 0 mm 4 mps 748 mmHg 80%
22:00 +32°C° 0 mm 4 mps 748 mmHg 81%
23:00 +31°C° 0 mm 3 mps 748 mmHg 82%
Show more